Terminal Aerodrome Forecast
Issued by NWS Raleigh/Durham, NC

Home | Current Version | Previous Version | Text Only | Print | Product List | Glossary On
Versions: 1 2 3 4 5 6 7 8 9 10 11 12 13 14 15 16 17 18 19 20 21 22 23 24 25 26 27 28 29 30 31 32 33 34 35 36 37 38 39 40
000
FTUS42 KRAH 050540
TAFFAY
TAF
KFAY 050540Z 0506/0606 22005KT P6SM SCT045 BKN250
      TEMPO 0510/0513 BKN015
     FM051600 23010KT P6SM VCSH BKN045 BKN120 PROB30 0520/0523
      VRB15G30KT 3SM -TSRA SCT030 BKN045CB=

USA.gov is the U.S. government's official web portal to all federal, state and local government web resources and services.